"Sample Date","Sample Time","Sample Value","Units","Flow Rate","Sample Interval","Number Channels","Micron Size 0","Counts/Channel 0","Micron Size 1","Counts/Channel 1","Micron Size 2","Counts/Channel 2","Micron Size 3","Counts/Channel 3","Micron Size 4","Counts/Channel 4","Micron Size 5","Counts/Channel 5","Micron Size 6","Counts/Channel 6","Micron Size 7","Counts/Channel 7","Micron Size 8","Counts/Channel 8","Micron Size 9","Counts/Channel 9","Micron Size 10","Counts/Channel 10","Micron Size 11","Counts/Channel 11","Micron Size 12","Counts/Channel 12","Micron Size 13","Counts/Channel 13","Micron Size 14","Counts/Channel 14","Micron Size 15","Counts/Channel 15","Micron Size 16","Counts/Channel 16","Micron Size 17","Counts/Channel 17","Micron Size 18","Counts/Channel 18","Micron Size 19","Counts/Channel 19","Micron Size 20","Counts/Channel 20","Micron Size 21","Counts/Channel 21","Micron Size 22","Counts/Channel 22","Micron Size 23","Counts/Channel 23","Micron Size 24","Counts/Channel 24","Micron Size 25","Counts/Channel 25","Micron Size 26","Counts/Channel 26","Micron Size 27","Counts/Channel 27","Micron Size 28","Counts/Channel 28","Micron Size 29","Counts/Channel 29","Micron Size 30","Counts/Channel 30","Micron Size 31","Counts/Channel 31"
"04/02/08","17:00:01",326394.000,"cc",28295.248,6.00,6,0.100,274638.000,0.200,47080.000,0.300,3248.000,0.500,1079.000,1.000,349.000,5.000,0
"04/02/08","17:00:07",353114.000,"cc",28293.065,6.00,6,0.100,309253.000,0.200,39128.000,0.300,3039.000,0.500,1271.000,1.000,423.000,5.000,0
"04/02/08","17:00:13",336921.000,"cc",28335.428,6.00,6,0.100,295549.000,0.200,36772.000,0.300,2897.000,0.500,1315.000,1.000,387.000,5.000,1.000
"04/02/08","17:00:19",318946.000,"cc",28386.637,6.00,6,0.100,278900.000,0.200,34735.000,0.300,3275.000,0.500,1518.000,1.000,518.000,5.000,0
"04/02/08","17:00:25",276752.000,"cc",28269.000,6.00,6,0.100,221164.000,0.200,50755.000,0.300,3287.000,0.500,1171.000,1.000,375.000,5.000,0
"04/02/08","17:00:31",302297.000,"cc",28299.178,6.00,6,0.100,255268.000,0.200,42745.000,0.300,2797.000,0.500,1105.000,1.000,382.000,5.000,0
"04/02/08","17:00:37",280474.000,"cc",28314.205,6.00,6,0.100,237714.000,0.200,38630.000,0.300,2713.000,0.500,1060.000,1.000,357.000,5.000,0
"04/02/08","17:00:43",327728.000,"cc",28316.275,6.00,6,0.100,274982.000,0.200,48259.000,0.300,3023.000,0.500,1104.000,1.000,360.000,5.000,0
"04/02/08","17:00:49",337831.000,"cc",28303.678,6.00,6,0.100,284099.000,0.200,49553.000,0.300,2914.000,0.500,975.000,1.000,290.000,5.000,0
"04/02/08","17:00:55",348748.000,"cc",28335.127,6.00,6,0.100,305677.000,0.200,39020.000,0.300,2644.000,0.500,1061.000,1.000,346.000,5.000,0
"04/02/08","17:01:01",328121.000,"cc",28350.336,6.00,6,0.100,276084.000,0.200,47282.000,0.300,3118.000,0.500,1220.000,1.000,417.000,5.000,0
"04/02/08","17:01:07",354438.000,"cc",28288.760,6.00,6,0.100,310004.000,0.200,40398.000,0.300,2585.000,0.500,1109.000,1.000,342.000,5.000,0
"04/02/08","17:01:13",290877.000,"cc",28342.664,6.00,6,0.100,257426.000,0.200,29786.000,0.300,2204.000,0.500,1100.000,1.000,361.000,5.000,0
"04/02/08","17:01:19",306377.000,"cc",28335.270,6.00,6,0.100,244817.000,0.200,56622.000,0.300,3382.000,0.500,1182.000,1.000,374.000,5.000,0
"04/02/08","17:01:25",336508.000,"cc",28298.803,6.00,6,0.100,282612.000,0.200,49342.000,0.300,3093.000,0.500,1101.000,1.000,360.000,5.000,0
"04/02/08","17:01:31",273807.000,"cc",28310.604,6.00,6,0.100,230596.000,0.200,38401.000,0.300,2951.000,0.500,1384.000,1.000,475.000,5.000,0
"04/02/08","17:01:37",337614.000,"cc",28284.568,6.00,6,0.100,296414.000,0.200,37008.000,0.300,2611.000,0.500,1192.000,1.000,389.000,5.000,0
"04/02/08","17:01:43",367583.000,"cc",28351.820,6.00,6,0.100,319889.000,0.200,43068.000,0.300,2968.000,0.500,1247.000,1.000,411.000,5.000,0
"04/02/08","17:01:49",256037.000,"cc",28312.949,6.00,6,0.100,187209.000,0.200,62933.000,0.300,4140.000,0.500,1333.000,1.000,422.000,5.000,0
"04/02/08","17:01:55",176187.000,"cc",28276.619,6.00,6,0.100,92583.000,0.200,77053.000,0.300,4750.000,0.500,1356.000,1.000,445.000,5.000,0
"04/02/08","17:02:01",169122.000,"cc",28344.148,6.00,6,0.100,87603.000,0.200,75180.000,0.300,4633.000,0.500,1295.000,1.000,411.000,5.000,0
"04/02/08","17:02:07",207325.000,"cc",28359.508,6.00,6,0.100,105960.000,0.200,93861.000,0.300,5792.000,0.500,1274.000,1.000,437.000,5.000,1.000
"04/02/08","17:02:13",345575.000,"cc",28295.391,6.00,6,0.100,266245.000,0.200,73049.000,0.300,4464.000,0.500,1382.000,1.000,435.000,5.000,0
"04/02/08","17:02:19",350719.000,"cc",28261.152,6.00,6,0.100,306856.000,0.200,39356.000,0.300,2899.000,0.500,1190.000,1.000,418.000,5.000,0
"04/02/08","17:02:25",330744.000,"cc",28346.445,6.00,6,0.100,276729.000,0.200,48572.000,0.300,3472.000,0.500,1465.000,1.000,506.000,5.000,0
"04/02/08","17:02:31",308933.000,"cc",28303.092,6.00,6,0.100,247351.000,0.200,56730.000,0.300,3363.000,0.500,1120.000,1.000,369.000,5.000,0
"04/02/08","17:02:37",357419.000,"cc",28373.787,6.00,6,0.100,300280.000,0.200,52631.000,0.300,3155.000,0.500,982.000,1.000,371.000,5.000,0
"04/02/08","17:02:43",204186.000,"cc",28278.350,6.00,6,0.100,129885.000,0.200,68956.000,0.300,3983.000,0.500,1020.000,1.000,342.000,5.000,0
"04/02/08","17:02:49",219852.000,"cc",28317.234,6.00,6,0.100,95473.000,0.200,115543.000,0.300,7248.000,0.500,1228.000,1.000,360.000,5.000,0
"04/02/08","17:02:55",249479.000,"cc",28363.193,6.00,6,0.100,150848.000,0.200,91676.000,0.300,5487.000,0.500,1128.000,1.000,340.000,5.000,0
"04/02/08","17:03:01",190530.000,"cc",28340.131,6.00,6,0.100,122173.000,0.200,62871.000,0.300,3902.000,0.500,1205.000,1.000,379.000,5.000,0
"04/02/08","17:03:07",290306.000,"cc",28295.531,6.00,6,0.100,232018.000,0.200,53343.000,0.300,3453.000,0.500,1119.000,1.000,373.000,5.000,0
"04/02/08","17:03:13",196261.000,"cc",28349.936,6.00,6,0.100,128210.000,0.200,62654.000,0.300,3912.000,0.500,1103.000,1.000,382.000,5.000,0
"04/02/08","17:03:19",219056.000,"cc",28307.529,6.00,6,0.100,144657.000,0.200,68892.000,0.300,4066.000,0.500,1102.000,1.000,339.000,5.000,0
"04/02/08","17:03:25",321730.000,"cc",28297.182,6.00,6,0.100,255856.000,0.200,60552.000,0.300,3767.000,0.500,1175.000,1.000,380.000,5.000,0
"04/02/08","17:03:31",167815.000,"cc",28316.889,6.00,6,0.100,78437.000,0.200,82197.000,0.300,5516.000,0.500,1255.000,1.000,410.000,5.000,0
"04/02/08","17:03:37",194822.000,"cc",28360.693,6.00,6,0.100,99683.000,0.200,88329.000,0.300,5410.000,0.500,1074.000,1.000,326.000,5.000,0
"04/02/08","17:03:43",325625.000,"cc",28271.617,6.00,6,0.100,257899.000,0.200,62355.000,0.300,3890.000,0.500,1099.000,1.000,382.000,5.000,0
"04/02/08","17:03:49",342565.000,"cc",28285.918,6.00,6,0.100,268538.000,0.200,67874.000,0.300,4385.000,0.500,1325.000,1.000,443.000,5.000,0
"04/02/08","17:03:55",305552.000,"cc",28320.018,6.00,6,0.100,254991.000,0.200,45212.000,0.300,3410.000,0.500,1439.000,1.000,500.000,5.000,0
"04/02/08","17:04:01",139447.000,"cc",28313.758,6.00,6,0.100,67264.000,0.200,66115.000,0.300,4275.000,0.500,1363.000,1.000,430.000,5.000,0
"04/02/08","17:04:07",309477.000,"cc",28325.906,6.00,6,0.100,261259.000,0.200,43959.000,0.300,2858.000,0.500,1053.000,1.000,348.000,5.000,0
"04/02/08","17:04:13",348177.000,"cc",28219.908,6.00,6,0.100,306292.000,0.200,37930.000,0.300,2550.000,0.500,1054.000,1.000,351.000,5.000,0
"04/02/08","17:04:19",350368.000,"cc",28365.074,6.00,6,0.100,307602.000,0.200,38896.000,0.300,2546.000,0.500,1009.000,1.000,315.000,5.000,0
"04/02/08","17:04:25",398671.000,"cc",28333.238,6.00,6,0.100,346136.000,0.200,48284.000,0.300,2925.000,0.500,1005.000,1.000,321.000,5.000,0
"04/02/08","17:04:31",344599.000,"cc",28350.602,6.00,6,0.100,289476.000,0.200,50595.000,0.300,3083.000,0.500,1064.000,1.000,381.000,5.000,0
"04/02/08","17:04:37",312914.000,"cc",28275.885,6.00,6,0.100,276987.000,0.200,32387.000,0.300,2186.000,0.500,1018.000,1.000,336.000,5.000,0
"04/02/08","17:04:43",322205.000,"cc",28348.920,6.00,6,0.100,284013.000,0.200,34001.000,0.300,2548.000,0.500,1220.000,1.000,423.000,5.000,0
"04/02/08","17:04:49",293459.000,"cc",28360.381,6.00,6,0.100,259086.000,0.200,30265.000,0.300,2405.000,0.500,1252.000,1.000,451.000,5.000,0
"04/02/08","17:04:55",330161.000,"cc",28286.264,6.00,6,0.100,291378.000,0.200,34545.000,0.300,2579.000,0.500,1252.000,1.000,407.000,5.000,0
"04/02/08","17:05:01",292750.000,"cc",28334.262,6.00,6,0.100,259861.000,0.200,29203.000,0.300,2170.000,0.500,1112.000,1.000,404.000,5.000,0
"04/02/08","17:05:07",295601.000,"cc",28271.549,6.00,6,0.100,248752.000,0.200,42413.000,0.300,2776.000,0.500,1222.000,1.000,438.000,5.000,0
"04/02/08","17:05:13",315687.000,"cc",28312.488,6.00,6,0.100,267232.000,0.200,44290.000,0.300,2721.000,0.500,1089.000,1.000,355.000,5.000,0
"04/02/08","17:05:19",298393.000,"cc",28344.209,6.00,6,0.100,264930.000,0.200,29751.000,0.300,2260.000,0.500,1086.000,1.000,366.000,5.000,0
"04/02/08","17:05:25",238324.000,"cc",28296.025,6.00,6,0.100,212427.000,0.200,22343.000,0.300,1996.000,0.500,1151.000,1.000,407.000,5.000,0
"04/02/08","17:05:31",284546.000,"cc",28298.455,6.00,6,0.100,252074.000,0.200,28488.000,0.300,2380.000,0.500,1166.000,1.000,438.000,5.000,0
"04/02/08","17:05:37",292401.000,"cc",28326.920,6.00,6,0.100,258175.000,0.200,29957.000,0.300,2527.000,0.500,1315.000,1.000,427.000,5.000,0
"04/02/08","17:05:43",270790.000,"cc",28347.076,6.00,6,0.100,239639.000,0.200,26898.000,0.300,2386.000,0.500,1388.000,1.000,479.000,5.000,0
"04/02/08","17:05:49",257921.000,"cc",28317.529,6.00,6,0.100,227232.000,0.200,26314.000,0.300,2499.000,0.500,1392.000,1.000,484.000,5.000,0
"04/02/08","17:05:55",249457.000,"cc",28259.686,6.00,6,0.100,221058.000,0.200,24262.000,0.300,2334.000,0.500,1340.000,1.000,463.000,5.000,0
"04/02/08","17:06:01",287065.000,"cc",28344.779,6.00,6,0.100,253079.000,0.200,29234.000,0.300,2625.000,0.500,1572.000,1.000,555.000,5.000,0
"04/02/08","17:06:07",331214.000,"cc",28268.125,6.00,6,0.100,290413.000,0.200,35616.000,0.300,3056.000,0.500,1576.000,1.000,553.000,5.000,0
"04/02/08","17:06:13",344974.000,"cc",28304.955,6.00,6,0.100,289981.000,0.200,50019.000,0.300,3263.000,0.500,1308.000,1.000,403.000,5.000,0
"04/02/08","17:06:19",229289.000,"cc",28362.543,6.00,6,0.100,147518.000,0.200,75069.000,0.300,4712.000,0.500,1489.000,1.000,501.000,5.000,0
"04/02/08","17:06:25",291414.000,"cc",28300.938,6.00,6,0.100,232047.000,0.200,53501.000,0.300,3808.000,0.500,1531.000,1.000,527.000,5.000,0
"04/02/08","17:06:31",358266.000,"cc",28351.748,6.00,6,0.100,297997.000,0.200,53370.000,0.300,4327.000,0.500,1937.000,1.000,635.000,5.000,0
"04/02/08","17:06:37",286829.000,"cc",28323.516,6.00,6,0.100,241467.000,0.200,39670.000,0.300,3413.000,0.500,1707.000,1.000,572.000,5.000,0
"04/02/08","17:06:43",345718.000,"cc",28304.615,6.00,6,0.100,302607.000,0.200,37543.000,0.300,3216.000,0.500,1791.000,1.000,561.000,5.000,0
"04/02/08","17:06:49",315473.000,"cc",28314.906,6.00,6,0.100,278113.000,0.200,33293.000,0.300,2494.000,0.500,1173.000,1.000,400.000,5.000,0
"04/02/08","17:06:55",345118.000,"cc",28300.522,6.00,6,0.100,291225.000,0.200,49265.000,0.300,3140.000,0.500,1121.000,1.000,367.000,5.000,0
"04/02/08","17:07:01",265371.000,"cc",28342.154,6.00,6,0.100,212839.000,0.200,47997.000,0.300,3080.000,0.500,1087.000,1.000,368.000,5.000,0
"04/02/08","17:07:07",310266.000,"cc",28331.023,6.00,6,0.100,273106.000,0.200,33115.000,0.300,2554.000,0.500,1119.000,1.000,372.000,5.000,0
"04/02/08","17:07:13",332601.000,"cc",28259.506,6.00,6,0.100,293293.000,0.200,35425.000,0.300,2512.000,0.500,1030.000,1.000,341.000,5.000,0
"04/02/08","17:07:19",303998.000,"cc",28303.857,6.00,6,0.100,267986.000,0.200,31876.000,0.300,2518.000,0.500,1227.000,1.000,391.000,5.000,0
"04/02/08","17:07:25",275002.000,"cc",28308.309,6.00,6,0.100,244339.000,0.200,27166.000,0.300,2099.000,0.500,1059.000,1.000,339.000,5.000,0
"04/02/08","17:07:31",316272.000,"cc",28274.565,6.00,6,0.100,279207.000,0.200,33415.000,0.300,2382.000,0.500,952.000,1.000,316.000,5.000,0
"04/02/08","17:07:37",295606.000,"cc",28406.879,6.00,6,0.100,237579.000,0.200,53130.000,0.300,3496.000,0.500,1018.000,1.000,383.000,5.000,0
"04/02/08","17:07:43",172280.000,"cc",28315.301,6.00,6,0.100,92039.000,0.200,74107.000,0.300,4549.000,0.500,1213.000,1.000,372.000,5.000,0
"04/02/08","17:07:49",253261.000,"cc",28311.385,6.00,6,0.100,188883.000,0.200,59555.000,0.300,3488.000,0.500,999.000,1.000,336.000,5.000,0
"04/02/08","17:07:55",176210.000,"cc",28334.027,6.00,6,0.100,93719.000,0.200,76022.000,0.300,4737.000,0.500,1329.000,1.000,403.000,5.000,0
"04/02/08","17:08:01",303631.000,"cc",28309.207,6.00,6,0.100,256218.000,0.200,42470.000,0.300,3096.000,0.500,1376.000,1.000,471.000,5.000,0
"04/02/08","17:08:07",288759.000,"cc",28297.606,6.00,6,0.100,254753.000,0.200,29394.000,0.300,2634.000,0.500,1444.000,1.000,534.000,5.000,0
"04/02/08","17:08:13",307571.000,"cc",28373.988,6.00,6,0.100,261149.000,0.200,41949.000,0.300,2881.000,0.500,1189.000,1.000,403.000,5.000,0
"04/02/08","17:08:19",348317.000,"cc",28339.940,6.00,6,0.100,292849.000,0.200,50483.000,0.300,3338.000,0.500,1229.000,1.000,418.000,5.000,0
"04/02/08","17:08:25",312395.000,"cc",28298.805,6.00,6,0.100,264693.000,0.200,43550.000,0.300,2704.000,0.500,1108.000,1.000,340.000,5.000,0
"04/02/08","17:08:31",339760.000,"cc",28274.596,6.00,6,0.100,299415.000,0.200,36534.000,0.300,2406.000,0.500,1062.000,1.000,343.000,5.000,0
"04/02/08","17:08:37",286508.000,"cc",28282.885,6.00,6,0.100,231818.000,0.200,50042.000,0.300,3125.000,0.500,1154.000,1.000,369.000,5.000,0
"04/02/08","17:08:43",330534.000,"cc",28319.088,6.00,6,0.100,280352.000,0.200,45864.000,0.300,2824.000,0.500,1125.000,1.000,369.000,5.000,0
"04/02/08","17:08:49",203417.000,"cc",28332.977,6.00,6,0.100,136487.000,0.200,61527.000,0.300,3610.000,0.500,1343.000,1.000,450.000,5.000,0
"04/02/08","17:08:55",345923.000,"cc",28298.373,6.00,6,0.100,293050.000,0.200,48276.000,0.300,3040.000,0.500,1171.000,1.000,386.000,5.000,0
"04/02/08","17:09:01",293536.000,"cc",28304.570,6.00,6,0.100,238497.000,0.200,50603.000,0.300,2946.000,0.500,1128.000,1.000,362.000,5.000,0
"04/02/08","17:09:07",369323.000,"cc",28282.350,6.00,6,0.100,311506.000,0.200,53165.000,0.300,3144.000,0.500,1135.000,1.000,373.000,5.000,0
"04/02/08","17:09:13",247496.000,"cc",28336.363,6.00,6,0.100,187604.000,0.200,55319.000,0.300,3132.000,0.500,1086.000,1.000,355.000,5.000,0
"04/02/08","17:09:19",342040.000,"cc",28310.365,6.00,6,0.100,289228.000,0.200,48332.000,0.300,3029.000,0.500,1092.000,1.000,359.000,5.000,0
"04/02/08","17:09:25",313760.000,"cc",28325.570,6.00,6,0.100,267612.000,0.200,41612.000,0.300,2870.000,0.500,1263.000,1.000,403.000,5.000,0
"04/02/08","17:09:31",319548.000,"cc",28295.193,6.00,6,0.100,282548.000,0.200,32738.000,0.300,2522.000,0.500,1290.000,1.000,449.000,5.000,1.000
"04/02/08","17:09:37",254168.000,"cc",28306.969,6.00,6,0.100,226974.000,0.200,23656.000,0.300,2043.000,0.500,1113.000,1.000,382.000,5.000,0
"04/02/08","17:09:43",256820.000,"cc",28295.621,6.00,6,0.100,229035.000,0.200,23990.000,0.300,2195.000,0.500,1220.000,1.000,380.000,5.000,0
"04/02/08","17:09:49",234580.000,"cc",28305.436,6.00,6,0.100,210114.000,0.200,21411.000,0.300,1734.000,0.500,1015.000,1.000,306.000,5.000,0
"04/02/08","17:09:55",242346.000,"cc",28294.805,6.00,6,0.100,217411.000,0.200,21819.000,0.300,1789.000,0.500,989.000,1.000,338.000,5.000,0
"04/02/08","17:10:01",346064.000,"cc",28354.461,6.00,6,0.100,305482.000,0.200,36893.000,0.300,2345.000,0.500,1026.000,1.000,318.000,5.000,0
"04/02/08","17:10:07",295105.000,"cc",28292.613,6.00,6,0.100,262992.000,0.200,28868.000,0.300,2013.000,0.500,925.000,1.000,307.000,5.000,0
"04/02/08","17:10:13",344375.000,"cc",28319.955,6.00,6,0.100,304538.000,0.200,36315.000,0.300,2220.000,0.500,957.000,1.000,345.000,5.000,0
"04/02/08","17:10:19",311310.000,"cc",28346.920,6.00,6,0.100,264439.000,0.200,42989.000,0.300,2593.000,0.500,972.000,1.000,317.000,5.000,0
"04/02/08","17:10:25",328731.000,"cc",28319.891,6.00,6,0.100,263198.000,0.200,60940.000,0.300,3350.000,0.500,948.000,1.000,295.000,5.000,0
"04/02/08","17:10:31",281877.000,"cc",28326.563,6.00,6,0.100,226350.000,0.200,51086.000,0.300,3076.000,0.500,1029.000,1.000,336.000,5.000,0
"04/02/08","17:10:37",258259.000,"cc",28280.400,6.00,6,0.100,194704.000,0.200,58909.000,0.300,3302.000,0.500,1021.000,1.000,323.000,5.000,0
"04/02/08","17:10:43",353670.000,"cc",28348.881,6.00,6,0.100,298357.000,0.200,50671.000,0.300,3187.000,0.500,1095.000,1.000,360.000,5.000,0
"04/02/08","17:10:49",375464.000,"cc",28338.359,6.00,6,0.100,329232.000,0.200,41955.000,0.300,2831.000,0.500,1101.000,1.000,345.000,5.000,0
"04/02/08","17:10:55",380713.000,"cc",28320.029,6.00,6,0.100,318626.000,0.200,57253.000,0.300,3370.000,0.500,1141.000,1.000,323.000,5.000,0
"04/02/08","17:11:01",300869.000,"cc",28338.650,6.00,6,0.100,266484.000,0.200,30703.000,0.300,2243.000,0.500,1072.000,1.000,367.000,5.000,0
"04/02/08","17:11:07",374847.000,"cc",28362.391,6.00,6,0.100,328057.000,0.200,42747.000,0.300,2671.000,0.500,1044.000,1.000,328.000,5.000,0
"04/02/08","17:11:13",394802.000,"cc",28305.535,6.00,6,0.100,343894.000,0.200,46572.000,0.300,2917.000,0.500,1044.000,1.000,375.000,5.000,0
"04/02/08","17:11:19",342890.000,"cc",28286.475,6.00,6,0.100,288828.000,0.200,49365.000,0.300,3228.000,0.500,1103.000,1.000,366.000,5.000,0
"04/02/08","17:11:25",300901.000,"cc",28303.318,6.00,6,0.100,254219.000,0.200,41851.000,0.300,3074.000,0.500,1337.000,1.000,420.000,5.000,0
"04/02/08","17:11:31",305781.000,"cc",28301.471,6.00,6,0.100,269655.000,0.200,31646.000,0.300,2609.000,0.500,1413.000,1.000,458.000,5.000,0
"04/02/08","17:11:37",330472.000,"cc",28341.459,6.00,6,0.100,278793.000,0.200,47081.000,0.300,3049.000,0.500,1179.000,1.000,370.000,5.000,0
"04/02/08","17:11:43",267985.000,"cc",28342.998,6.00,6,0.100,237707.000,0.200,26538.000,0.300,2200.000,0.500,1152.000,1.000,388.000,5.000,0
"04/02/08","17:11:49",316267.000,"cc",28372.416,6.00,6,0.100,279004.000,0.200,33088.000,0.300,2532.000,0.500,1205.000,1.000,438.000,5.000,0
"04/02/08","17:11:55",328222.000,"cc",28326.484,6.00,6,0.100,289884.000,0.200,34283.000,0.300,2434.000,0.500,1206.000,1.000,415.000,5.000,0
"04/02/08","17:12:01",322085.000,"cc",28341.529,6.00,6,0.100,285479.000,0.200,32934.000,0.300,2254.000,0.500,1067.000,1.000,351.000,5.000,0
"04/02/08","17:12:07",321936.000,"cc",28238.412,6.00,6,0.100,274111.000,0.200,43792.000,0.300,2637.000,0.500,1042.000,1.000,354.000,5.000,0
"04/02/08","17:12:13",360371.000,"cc",28284.139,6.00,6,0.100,316843.000,0.200,39522.000,0.300,2501.000,0.500,1124.000,1.000,381.000,5.000,0
"04/02/08","17:12:19",284575.000,"cc",28305.082,6.00,6,0.100,252871.000,0.200,27917.000,0.300,2195.000,0.500,1217.000,1.000,375.000,5.000,0
"04/02/08","17:12:25",314034.000,"cc",28340.248,6.00,6,0.100,277119.000,0.200,32712.000,0.300,2483.000,0.500,1285.000,1.000,435.000,5.000,0
"04/02/08","17:12:31",163293.000,"cc",28342.330,6.00,6,0.100,90265.000,0.200,67773.000,0.300,3754.000,0.500,1129.000,1.000,372.000,5.000,0
"04/02/08","17:12:37",264015.000,"cc",28330.244,6.00,6,0.100,194817.000,0.200,64216.000,0.300,3638.000,0.500,1013.000,1.000,331.000,5.000,0
"04/02/08","17:12:43",302121.000,"cc",28312.553,6.00,6,0.100,245098.000,0.200,52754.000,0.300,2931.000,0.500,1005.000,1.000,333.000,5.000,0
"04/02/08","17:12:49",187875.000,"cc",28296.451,6.00,6,0.100,103214.000,0.200,79176.000,0.300,4144.000,0.500,1044.000,1.000,297.000,5.000,0
"04/02/08","17:12:55",319655.000,"cc",28326.039,6.00,6,0.100,254994.000,0.200,59938.000,0.300,3310.000,0.500,1086.000,1.000,327.000,5.000,0
"04/02/08","17:13:01",192605.000,"cc",28347.254,6.00,6,0.100,129493.000,0.200,58476.000,0.300,3267.000,0.500,1018.000,1.000,351.000,5.000,0
"04/02/08","17:13:07",312549.000,"cc",28352.652,6.00,6,0.100,253449.000,0.200,54800.000,0.300,3095.000,0.500,913.000,1.000,292.000,5.000,0
"04/02/08","17:13:13",331599.000,"cc",28262.481,6.00,6,0.100,283001.000,0.200,44544.000,0.300,2664.000,0.500,1008.000,1.000,382.000,5.000,0
"04/02/08","17:13:19",352461.000,"cc",28302.725,6.00,6,0.100,311498.000,0.200,37016.000,0.300,2472.000,0.500,1124.000,1.000,351.000,5.000,0
"04/02/08","17:13:25",240152.000,"cc",28342.822,6.00,6,0.100,181717.000,0.200,53808.000,0.300,3143.000,0.500,1145.000,1.000,339.000,5.000,0
"04/02/08","17:13:31",231056.000,"cc",28336.576,6.00,6,0.100,158117.000,0.200,67806.000,0.300,3763.000,0.500,1032.000,1.000,338.000,5.000,0
"04/02/08","17:13:37",206086.000,"cc",28319.654,6.00,6,0.100,141025.000,0.200,60352.000,0.300,3268.000,0.500,1096.000,1.000,345.000,5.000,0
"04/02/08","17:13:43",307133.000,"cc",28281.072,6.00,6,0.100,262194.000,0.200,41021.000,0.300,2523.000,0.500,1046.000,1.000,349.000,5.000,0
"04/02/08","17:13:49",241034.000,"cc",28347.076,6.00,6,0.100,158312.000,0.200,77047.000,0.300,4198.000,0.500,1107.000,1.000,370.000,5.000,0
"04/02/08","17:13:55",387127.000,"cc",28366.865,6.00,6,0.100,324587.000,0.200,58217.000,0.300,3065.000,0.500,926.000,1.000,332.000,5.000,0
"04/02/08","17:14:01",296196.000,"cc",28236.647,6.00,6,0.100,240525.000,0.200,51517.000,0.300,2861.000,0.500,968.000,1.000,325.000,5.000,0
"04/02/08","17:14:07",313936.000,"cc",28339.482,6.00,6,0.100,268770.000,0.200,41361.000,0.300,2497.000,0.500,985.000,1.000,323.000,5.000,0
"04/02/08","17:14:13",196235.000,"cc",28361.141,6.00,6,0.100,133943.000,0.200,57750.000,0.300,3210.000,0.500,993.000,1.000,339.000,5.000,0
"04/02/08","17:14:19",301181.000,"cc",28307.680,6.00,6,0.100,243352.000,0.200,53642.000,0.300,3022.000,0.500,862.000,1.000,303.000,5.000,0
"04/02/08","17:14:25",229106.000,"cc",28322.828,6.00,6,0.100,169510.000,0.200,55302.000,0.300,3074.000,0.500,933.000,1.000,287.000,5.000,0
"04/02/08","17:14:31",261441.000,"cc",28259.789,6.00,6,0.100,210263.000,0.200,47063.000,0.300,2918.000,0.500,894.000,1.000,303.000,5.000,0
"04/02/08","17:14:37",252354.000,"cc",28319.770,6.00,6,0.100,205358.000,0.200,43136.000,0.300,2584.000,0.500,929.000,1.000,347.000,5.000,0
"04/02/08","17:14:43",325446.000,"cc",28356.137,6.00,6,0.100,276971.000,0.200,44565.000,0.300,2666.000,0.500,948.000,1.000,296.000,5.000,0
"04/02/08","17:14:49",221439.000,"cc",28288.055,6.00,6,0.100,178557.000,0.200,39137.000,0.300,2541.000,0.500,915.000,1.000,289.000,5.000,0
"04/02/08","17:14:55",297436.000,"cc",28337.604,6.00,6,0.100,254642.000,0.200,38873.000,0.300,2555.000,0.500,1035.000,1.000,331.000,5.000,0
"04/02/08","17:15:01",342045.000,"cc",28288.740,6.00,6,0.100,289071.000,0.200,48104.000,0.300,3159.000,0.500,1281.000,1.000,430.000,5.000,0
"04/02/08","17:15:07",339282.000,"cc",28324.555,6.00,6,0.100,299830.000,0.200,35932.000,0.300,2256.000,0.500,942.000,1.000,322.000,5.000,0
"04/02/08","17:15:13",348541.000,"cc",28279.979,6.00,6,0.100,307640.000,0.200,37172.000,0.300,2397.000,0.500,1004.000,1.000,328.000,5.000,0
"04/02/08","17:15:19",364918.000,"cc",28361.522,6.00,6,0.100,320354.000,0.200,40336.000,0.300,2746.000,0.500,1112.000,1.000,370.000,5.000,0
"04/02/08","17:15:25",359594.000,"cc",28286.397,6.00,6,0.100,316695.000,0.200,38569.000,0.300,2698.000,0.500,1235.000,1.000,397.000,5.000,0
"04/02/08","17:15:31",333960.000,"cc",28322.690,6.00,6,0.100,295601.000,0.200,34352.000,0.300,2499.000,0.500,1117.000,1.000,391.000,5.000,0
"04/02/08","17:15:37",344201.000,"cc",28324.586,6.00,6,0.100,304110.000,0.200,36038.000,0.300,2523.000,0.500,1149.000,1.000,381.000,5.000,0
"04/02/08","17:15:43",287931.000,"cc",28289.559,6.00,6,0.100,256070.000,0.200,27818.000,0.300,2373.000,0.500,1265.000,1.000,405.000,5.000,0
"04/02/08","17:15:49",240372.000,"cc",28314.422,6.00,6,0.100,214385.000,0.200,22124.000,0.300,2118.000,0.500,1313.000,1.000,432.000,5.000,0
"04/02/08","17:15:55",352641.000,"cc",28301.531,6.00,6,0.100,311113.000,0.200,37240.000,0.300,2611.000,0.500,1300.000,1.000,377.000,5.000,0
"04/02/08","17:16:01",302645.000,"cc",28309.721,6.00,6,0.100,258245.000,0.200,40238.000,0.300,2745.000,0.500,1051.000,1.000,366.000,5.000,0